Time,TemperatureF,DewpointF,PressureIn,WindDirection,WindDirectionDegrees,WindSpeedMPH,WindSpeedGustMPH,Humidity,HourlyPrecipIn,Conditions,Clouds,dailyrainin,SoftwareType,DateUTC
2013-03-28 00:00:00,32.0,25.0,30.11,NW,315,10.0,18.0,75,0.00,,,0.00,Weather View 32 v70,2013-03-28 04:00:00,
2013-03-28 00:01:00,32.0,25.0,30.11,NW,315,7.0,18.0,75,0.00,,,0.00,Weather View 32 v70,2013-03-28 04:01:00,
2013-03-28 00:06:00,31.0,24.0,30.11,North,0,9.0,18.0,75,0.00,,,0.00,Weather View 32 v70,2013-03-28 04:06:00,
2013-03-28 00:11:00,31.0,24.0,30.11,NNW,338,7.0,18.0,75,0.00,,,0.00,Weather View 32 v70,2013-03-28 04:11:00,
2013-03-28 00:16:00,31.0,24.0,30.11,North,0,8.0,16.0,75,0.00,,,0.00,Weather View 32 v70,2013-03-28 04:16:00,
2013-03-28 00:21:00,31.0,24.0,30.11,NW,315,10.0,17.0,75,0.00,,,0.00,Weather View 32 v70,2013-03-28 04:21:00,
2013-03-28 00:26:00,31.0,23.7,30.11,NW,315,6.0,17.0,74,0.00,,,0.00,Weather View 32 v70,2013-03-28 04:26:00,
2013-03-28 00:31:00,31.0,23.7,30.10,NW,315,6.0,17.0,74,0.00,,,0.00,Weather View 32 v70,2013-03-28 04:31:00,
2013-03-28 00:36:00,31.0,24.0,30.10,NNE,22,9.0,17.0,75,0.00,,,0.00,Weather View 32 v70,2013-03-28 04:36:00,
2013-03-28 00:41:00,31.0,24.0,30.10,NW,315,11.0,17.0,75,0.00,,,0.00,Weather View 32 v70,2013-03-28 04:41:00,
2013-03-28 00:46:00,31.0,24.0,30.11,NW,315,6.0,17.0,75,0.00,,,0.00,Weather View 32 v70,2013-03-28 04:46:00,
2013-03-28 00:51:00,31.0,23.7,30.10,NNW,338,6.0,18.0,74,0.00,,,0.00,Weather View 32 v70,2013-03-28 04:51:00,
2013-03-28 00:56:00,31.0,23.7,30.10,NNW,338,10.0,18.0,74,0.00,,,0.00,Weather View 32 v70,2013-03-28 04:56:00,
2013-03-28 01:01:00,31.0,23.7,30.10,NW,315,8.0,19.0,74,0.00,,,0.00,Weather View 32 v70,2013-03-28 05:01:00,
2013-03-28 01:06:00,31.0,23.4,30.10,NNW,338,9.0,21.0,73,0.00,,,0.00,Weather View 32 v70,2013-03-28 05:06:00,
2013-03-28 01:12:00,31.0,23.4,30.09,North,0,8.0,21.0,73,0.00,,,0.00,Weather View 32 v70,2013-03-28 05:12:00,
2013-03-28 01:17:00,31.0,23.4,30.09,North,0,8.0,21.0,73,0.00,,,0.00,Weather View 32 v70,2013-03-28 05:17:00,
2013-03-28 01:22:00,31.0,23.4,30.09,NNW,338,7.0,21.0,73,0.00,,,0.00,Weather View 32 v70,2013-03-28 05:22:00,
2013-03-28 01:27:00,31.0,23.4,30.09,NNE,22,10.0,21.0,73,0.00,,,0.00,Weather View 32 v70,2013-03-28 05:27:00,
2013-03-28 01:32:00,31.0,23.4,30.09,NW,315,9.0,23.0,73,0.00,,,0.00,Weather View 32 v70,2013-03-28 05:32:00,
2013-03-28 01:37:00,31.0,23.4,30.09,North,0,12.0,23.0,73,0.00,,,0.00,Weather View 32 v70,2013-03-28 05:37:00,
2013-03-28 01:42:00,31.0,23.4,30.09,NW,315,16.0,23.0,73,0.00,,,0.00,Weather View 32 v70,2013-03-28 05:42:00,
2013-03-28 01:47:00,31.0,23.4,30.09,NW,315,13.0,23.0,73,0.00,,,0.00,Weather View 32 v70,2013-03-28 05:47:00,
2013-03-28 01:52:00,31.0,23.0,30.09,NW,315,16.0,23.0,72,0.00,,,0.00,Weather View 32 v70,2013-03-28 05:52:00,
2013-03-28 01:57:00,31.0,23.0,30.09,NW,315,11.0,23.0,72,0.00,,,0.00,Weather View 32 v70,2013-03-28 05:57:00,
2013-03-28 02:02:00,31.0,23.0,30.08,NE,45,11.0,24.0,72,0.00,,,0.00,Weather View 32 v70,2013-03-28 06:02:00,
2013-03-28 02:07:00,31.0,23.0,30.09,North,0,13.0,24.0,72,0.00,,,0.00,Weather View 32 v70,2013-03-28 06:07:00,
2013-03-28 02:12:00,31.0,23.0,30.08,North,0,13.0,24.0,72,0.00,,,0.00,Weather View 32 v70,2013-03-28 06:12:00,
2013-03-28 02:17:00,31.0,22.7,30.09,North,0,17.0,24.0,71,0.00,,,0.00,Weather View 32 v70,2013-03-28 06:17:00,
2013-03-28 02:22:00,31.0,22.7,30.08,NNW,338,10.0,24.0,71,0.00,,,0.00,Weather View 32 v70,2013-03-28 06:22:00,
2013-03-28 02:27:00,31.0,22.7,30.09,WNW,292,13.0,24.0,71,0.00,,,0.00,Weather View 32 v70,2013-03-28 06:27:00,
2013-03-28 02:32:00,31.0,23.0,30.08,NW,315,11.0,24.0,72,0.00,,,0.00,Weather View 32 v70,2013-03-28 06:32:00,
2013-03-28 02:37:00,31.0,22.7,30.09,North,0,13.0,24.0,71,0.00,,,0.00,Weather View 32 v70,2013-03-28 06:37:00,
2013-03-28 02:42:00,31.0,22.7,30.09,NNW,338,12.0,24.0,71,0.00,,,0.00,Weather View 32 v70,2013-03-28 06:42:00,
2013-03-28 02:47:00,31.0,22.7,30.09,NW,315,9.0,24.0,71,0.00,,,0.00,Weather View 32 v70,2013-03-28 06:47:00,
2013-03-28 02:52:00,31.0,22.7,30.09,NW,315,16.0,24.0,71,0.00,,,0.00,Weather View 32 v70,2013-03-28 06:52:00,
2013-03-28 02:57:00,31.0,22.7,30.08,NW,315,10.0,24.0,71,0.00,,,0.00,Weather View 32 v70,2013-03-28 06:57:00,
2013-03-28 03:02:00,31.0,22.7,30.09,North,0,8.0,24.0,71,0.00,,,0.00,Weather View 32 v70,2013-03-28 07:02:00,
2013-03-28 03:07:00,31.0,22.7,30.09,NNW,338,15.0,24.0,71,0.00,,,0.00,Weather View 32 v70,2013-03-28 07:07:00,
2013-03-28 03:12:00,31.0,23.0,30.08,NNW,338,10.0,24.0,72,0.00,,,0.00,Weather View 32 v70,2013-03-28 07:12:00,
2013-03-28 03:17:00,31.0,23.0,30.08,NNW,338,10.0,24.0,72,0.00,,,0.00,Weather View 32 v70,2013-03-28 07:17:00,
2013-03-28 03:22:00,31.0,23.0,30.08,NNW,338,7.0,24.0,72,0.00,,,0.00,Weather View 32 v70,2013-03-28 07:22:00,
2013-03-28 03:27:00,31.0,23.0,30.08,NW,315,10.0,24.0,72,0.00,,,0.00,Weather View 32 v70,2013-03-28 07:27:00,
2013-03-28 03:33:00,31.0,23.0,30.09,NW,315,11.0,24.0,72,0.00,,,0.00,Weather View 32 v70,2013-03-28 07:33:00,
2013-03-28 03:37:00,31.0,23.0,30.08,North,0,10.0,24.0,72,0.00,,,0.00,Weather View 32 v70,2013-03-28 07:37:00,
2013-03-28 03:43:00,31.0,23.0,30.08,WNW,292,14.0,23.0,72,0.00,,,0.00,Weather View 32 v70,2013-03-28 07:43:00,
2013-03-28 03:48:00,31.0,23.0,30.08,NNW,338,7.0,22.0,72,0.00,,,0.00,Weather View 32 v70,2013-03-28 07:48:00,
2013-03-28 03:53:00,31.0,23.0,30.08,WNW,292,8.0,20.0,72,0.00,,,0.00,Weather View 32 v70,2013-03-28 07:53:00,
2013-03-28 03:58:00,31.0,22.7,30.08,NW,315,10.0,20.0,71,0.00,,,0.00,Weather View 32 v70,2013-03-28 07:58:00,
2013-03-28 04:03:00,31.0,23.0,30.08,WNW,292,8.0,20.0,72,0.00,,,0.00,Weather View 32 v70,2013-03-28 08:03:00,
2013-03-28 04:08:00,31.0,23.0,30.08,West,270,6.0,20.0,72,0.00,,,0.00,Weather View 32 v70,2013-03-28 08:08:00,
2013-03-28 04:13:00,31.0,23.0,30.08,North,0,9.0,20.0,72,0.00,,,0.00,Weather View 32 v70,2013-03-28 08:13:00,
2013-03-28 04:18:00,31.0,23.4,30.08,NNW,338,7.0,19.0,73,0.00,,,0.00,Weather View 32 v70,2013-03-28 08:18:00,
2013-03-28 04:23:00,31.0,23.4,30.08,North,0,9.0,19.0,73,0.00,,,0.00,Weather View 32 v70,2013-03-28 08:23:00,
2013-03-28 04:28:00,31.0,23.4,30.08,NW,315,12.0,19.0,73,0.00,,,0.00,Weather View 32 v70,2013-03-28 08:28:00,
2013-03-28 04:33:00,31.0,23.4,30.08,NW,315,9.0,19.0,73,0.00,,,0.00,Weather View 32 v70,2013-03-28 08:33:00,
2013-03-28 04:38:00,31.0,23.4,30.09,WNW,292,5.0,19.0,73,0.00,,,0.00,Weather View 32 v70,2013-03-28 08:38:00,
2013-03-28 04:43:00,31.0,23.4,30.09,WNW,292,5.0,19.0,73,0.00,,,0.00,Weather View 32 v70,2013-03-28 08:43:00,
2013-03-28 04:48:00,31.0,23.4,30.09,NW,315,9.0,19.0,73,0.00,,,0.00,Weather View 32 v70,2013-03-28 08:48:00,
2013-03-28 04:53:00,31.0,23.4,30.09,WNW,292,11.0,19.0,73,0.00,,,0.00,Weather View 32 v70,2013-03-28 08:53:00,
2013-03-28 04:58:00,31.0,23.4,30.09,WNW,292,11.0,19.0,73,0.00,,,0.00,Weather View 32 v70,2013-03-28 08:58:00,
2013-03-28 05:03:00,31.0,23.4,30.08,North,0,5.0,19.0,73,0.00,,,0.00,Weather View 32 v70,2013-03-28 09:03:00,
2013-03-28 05:08:00,31.0,23.7,30.08,NNE,22,14.0,19.0,74,0.00,,,0.00,Weather View 32 v70,2013-03-28 09:08:00,
2013-03-28 05:13:00,31.0,23.7,30.08,North,0,6.0,19.0,74,0.00,,,0.00,Weather View 32 v70,2013-03-28 09:13:00,
2013-03-28 05:18:00,31.0,23.7,30.08,NW,315,8.0,19.0,74,0.00,,,0.00,Weather View 32 v70,2013-03-28 09:18:00,
2013-03-28 05:23:00,31.0,23.7,30.09,WNW,292,14.0,19.0,74,0.00,,,0.00,Weather View 32 v70,2013-03-28 09:23:00,
2013-03-28 05:28:00,31.0,23.7,30.09,WNW,292,7.0,19.0,74,0.00,,,0.00,Weather View 32 v70,2013-03-28 09:28:00,
2013-03-28 05:33:00,31.0,23.7,30.09,NW,315,11.0,19.0,74,0.00,,,0.00,Weather View 32 v70,2013-03-28 09:33:00,
2013-03-28 05:38:00,31.0,23.7,30.09,NNW,338,9.0,19.0,74,0.00,,,0.00,Weather View 32 v70,2013-03-28 09:38:00,
2013-03-28 05:44:00,31.0,23.7,30.09,North,0,10.0,19.0,74,0.00,,,0.00,Weather View 32 v70,2013-03-28 09:44:00,
2013-03-28 05:50:00,31.0,24.0,30.08,North,0,9.0,19.0,75,0.00,,,0.00,Weather View 32 v70,2013-03-28 09:50:00,
2013-03-28 05:55:00,31.0,24.0,30.09,NW,315,8.0,19.0,75,0.00,,,0.00,Weather View 32 v70,2013-03-28 09:55:00,
2013-03-28 06:00:00,31.0,23.7,30.09,North,0,9.0,19.0,74,0.00,,,0.00,Weather View 32 v70,2013-03-28 10:00:00,
2013-03-28 06:05:00,31.0,23.7,30.09,NNE,22,14.0,19.0,74,0.00,,,0.00,Weather View 32 v70,2013-03-28 10:05:00,
2013-03-28 06:10:00,31.0,24.0,30.09,North,0,10.0,19.0,75,0.00,,,0.00,Weather View 32 v70,2013-03-28 10:10:00,
2013-03-28 06:15:00,31.0,24.0,30.09,North,0,6.0,19.0,75,0.00,,,0.00,Weather View 32 v70,2013-03-28 10:15:00,
2013-03-28 06:20:00,31.0,23.7,30.10,WNW,292,8.0,19.0,74,0.00,,,0.00,Weather View 32 v70,2013-03-28 10:20:00,
2013-03-28 06:25:00,31.0,24.0,30.10,WNW,292,8.0,19.0,75,0.00,,,0.00,Weather View 32 v70,2013-03-28 10:25:00,
2013-03-28 06:30:00,31.0,23.7,30.10,NW,315,6.0,18.0,74,0.00,,,0.00,Weather View 32 v70,2013-03-28 10:30:00,
2013-03-28 06:35:00,31.0,23.7,30.10,WNW,292,7.0,18.0,74,0.00,,,0.00,Weather View 32 v70,2013-03-28 10:35:00,
2013-03-28 06:40:00,31.0,24.0,30.10,WNW,292,5.0,18.0,75,0.00,,,0.00,Weather View 32 v70,2013-03-28 10:40:00,
2013-03-28 06:45:00,31.0,24.0,30.11,NW,315,8.0,18.0,75,0.00,,,0.00,Weather View 32 v70,2013-03-28 10:45:00,
2013-03-28 06:50:00,31.0,24.0,30.11,NW,315,7.0,18.0,75,0.00,,,0.00,Weather View 32 v70,2013-03-28 10:50:00,
2013-03-28 06:55:00,31.0,24.0,30.11,WNW,292,6.0,18.0,75,0.00,,,0.00,Weather View 32 v70,2013-03-28 10:55:00,
2013-03-28 07:00:00,31.0,24.0,30.11,West,270,6.0,18.0,75,0.00,,,0.00,Weather View 32 v70,2013-03-28 11:00:00,
2013-03-28 07:05:00,31.0,24.0,30.11,WNW,292,8.0,18.0,75,0.00,,,0.00,Weather View 32 v70,2013-03-28 11:05:00,
2013-03-28 07:10:00,31.0,24.0,30.11,NW,315,11.0,18.0,75,0.00,,,0.00,Weather View 32 v70,2013-03-28 11:10:00,
2013-03-28 07:15:00,31.0,24.0,30.12,NW,315,8.0,18.0,75,0.00,,,0.00,Weather View 32 v70,2013-03-28 11:15:00,
2013-03-28 07:20:00,31.0,24.0,30.11,NW,315,8.0,16.0,75,0.00,,,0.00,Weather View 32 v70,2013-03-28 11:20:00,
2013-03-28 07:25:00,31.0,24.0,30.12,NW,315,10.0,16.0,75,0.00,,,0.00,Weather View 32 v70,2013-03-28 11:25:00,
2013-03-28 07:30:00,31.0,24.0,30.11,WNW,292,7.0,15.0,75,0.00,,,0.00,Weather View 32 v70,2013-03-28 11:30:00,
2013-03-28 07:35:00,31.0,24.3,30.12,NNW,338,10.0,16.0,76,0.00,,,0.00,Weather View 32 v70,2013-03-28 11:35:00,
2013-03-28 07:40:00,31.0,24.3,30.12,NNW,338,7.0,16.0,76,0.00,,,0.00,Weather View 32 v70,2013-03-28 11:40:00,
2013-03-28 07:45:00,31.0,24.0,30.12,NNW,338,6.0,16.0,75,0.00,,,0.00,Weather View 32 v70,2013-03-28 11:45:00,
2013-03-28 07:50:00,31.0,24.3,30.12,NW,315,10.0,16.0,76,0.00,,,0.00,Weather View 32 v70,2013-03-28 11:50:00,
2013-03-28 07:55:00,31.0,24.3,30.12,WNW,292,8.0,16.0,76,0.00,,,0.00,Weather View 32 v70,2013-03-28 11:55:00,
2013-03-28 08:00:00,31.0,24.3,30.13,WNW,292,12.0,16.0,76,0.00,,,0.00,Weather View 32 v70,2013-03-28 12:00:00,
2013-03-28 08:05:00,31.0,24.0,30.13,NNW,338,8.0,16.0,75,0.00,,,0.00,Weather View 32 v70,2013-03-28 12:05:00,
2013-03-28 08:10:00,31.0,24.0,30.13,WNW,292,11.0,16.0,75,0.00,,,0.00,Weather View 32 v70,2013-03-28 12:10:00,
2013-03-28 08:15:00,31.0,24.0,30.13,WNW,292,10.0,16.0,75,0.00,,,0.00,Weather View 32 v70,2013-03-28 12:15:00,
2013-03-28 08:20:00,31.0,24.0,30.13,WNW,292,13.0,16.0,75,0.00,,,0.00,Weather View 32 v70,2013-03-28 12:20:00,
2013-03-28 08:25:00,31.0,24.0,30.13,WNW,292,14.0,16.0,75,0.00,,,0.00,Weather View 32 v70,2013-03-28 12:25:00,
2013-03-28 08:30:00,32.0,24.6,30.13,NNW,338,9.0,16.0,74,0.00,,,0.00,Weather View 32 v70,2013-03-28 12:30:00,
2013-03-28 08:35:00,32.0,25.0,30.14,NW,315,7.0,16.0,75,0.00,,,0.00,Weather View 32 v70,2013-03-28 12:35:00,
2013-03-28 08:40:00,32.0,25.0,30.14,North,0,6.0,16.0,75,0.00,,,0.00,Weather View 32 v70,2013-03-28 12:40:00,
2013-03-28 08:45:00,32.0,25.0,30.14,NNW,338,8.0,16.0,75,0.00,,,0.00,Weather View 32 v70,2013-03-28 12:45:00,
2013-03-28 08:50:00,32.0,25.0,30.14,NNW,338,10.0,16.0,75,0.00,,,0.00,Weather View 32 v70,2013-03-28 12:50:00,
2013-03-28 08:55:00,32.0,24.6,30.14,NNW,338,8.0,16.0,74,0.00,,,0.00,Weather View 32 v70,2013-03-28 12:55:00,
2013-03-28 09:00:00,32.0,24.6,30.14,NNW,338,9.0,16.0,74,0.00,,,0.00,Weather View 32 v70,2013-03-28 13:00:00,
2013-03-28 09:05:00,32.0,24.6,30.14,NW,315,11.0,16.0,74,0.00,,,0.00,Weather View 32 v70,2013-03-28 13:05:00,
2013-03-28 09:10:00,33.0,25.6,30.14,NNE,22,17.0,17.0,74,0.00,,,0.00,Weather View 32 v70,2013-03-28 13:10:00,
2013-03-28 09:15:00,33.0,25.6,30.15,WNW,292,7.0,18.0,74,0.00,,,0.00,Weather View 32 v70,2013-03-28 13:15:00,
2013-03-28 09:20:00,33.0,25.3,30.15,North,0,11.0,18.0,73,0.00,,,0.00,Weather View 32 v70,2013-03-28 13:20:00,
2013-03-28 09:25:00,33.0,25.3,30.15,NW,315,7.0,23.0,73,0.00,,,0.00,Weather View 32 v70,2013-03-28 13:25:00,
2013-03-28 09:30:00,33.0,25.3,30.15,NW,315,6.0,23.0,73,0.00,,,0.00,Weather View 32 v70,2013-03-28 13:30:00,
2013-03-28 09:35:00,34.0,26.3,30.15,NE,45,11.0,23.0,73,0.00,,,0.00,Weather View 32 v70,2013-03-28 13:35:00,
2013-03-28 09:40:00,34.0,25.6,30.15,West,270,10.0,23.0,71,0.00,,,0.00,Weather View 32 v70,2013-03-28 13:40:00,
2013-03-28 09:45:00,34.0,25.6,30.15,North,0,15.0,23.0,71,0.00,,,0.00,Weather View 32 v70,2013-03-28 13:45:00,
2013-03-28 09:50:00,35.0,26.2,30.15,NNW,338,11.0,23.0,70,0.00,,,0.00,Weather View 32 v70,2013-03-28 13:50:00,
2013-03-28 09:55:00,35.0,25.9,30.15,North,0,8.0,23.0,69,0.00,,,0.00,Weather View 32 v70,2013-03-28 13:55:00,
2013-03-28 10:00:00,35.0,25.9,30.15,NNE,22,10.0,23.0,69,0.00,,,0.00,Weather View 32 v70,2013-03-28 14:00:00,
2013-03-28 10:05:00,35.0,25.9,30.15,North,0,5.0,23.0,69,0.00,,,0.00,Weather View 32 v70,2013-03-28 14:05:00,
2013-03-28 10:10:00,36.0,26.5,30.15,NW,315,8.0,23.0,68,0.00,,,0.00,Weather View 32 v70,2013-03-28 14:10:00,
2013-03-28 10:15:00,36.0,26.1,30.15,North,0,10.0,23.0,67,0.00,,,0.00,Weather View 32 v70,2013-03-28 14:15:00,
2013-03-28 10:20:00,36.0,26.1,30.15,North,0,4.0,23.0,67,0.00,,,0.00,Weather View 32 v70,2013-03-28 14:20:00,
2013-03-28 10:25:00,37.0,26.7,30.15,NNW,338,6.0,19.0,66,0.00,,,0.00,Weather View 32 v70,2013-03-28 14:25:00,
2013-03-28 10:30:00,37.0,26.3,30.15,NW,315,10.0,19.0,65,0.00,,,0.00,Weather View 32 v70,2013-03-28 14:30:00,
2013-03-28 10:35:00,37.0,26.3,30.15,NNE,22,16.0,19.0,65,0.00,,,0.00,Weather View 32 v70,2013-03-28 14:35:00,
2013-03-28 10:40:00,38.0,26.9,30.15,WNW,292,6.0,17.0,64,0.00,,,0.00,Weather View 32 v70,2013-03-28 14:40:00,
2013-03-28 10:45:00,39.0,27.5,30.15,NNE,22,10.0,17.0,63,0.00,,,0.00,Weather View 32 v70,2013-03-28 14:45:00,
2013-03-28 10:50:00,39.0,27.5,30.15,NNE,22,9.0,17.0,63,0.00,,,0.00,Weather View 32 v70,2013-03-28 14:50:00,
2013-03-28 10:55:00,39.0,26.7,30.15,North,0,11.0,17.0,61,0.00,,,0.00,Weather View 32 v70,2013-03-28 14:55:00,
2013-03-28 11:00:00,40.0,27.6,30.15,NNW,338,6.0,17.0,61,0.00,,,0.00,Weather View 32 v70,2013-03-28 15:00:00,
2013-03-28 11:05:00,40.0,27.2,30.15,NW,315,7.0,17.0,60,0.00,,,0.00,Weather View 32 v70,2013-03-28 15:05:00,
2013-03-28 11:10:00,40.0,27.2,30.15,North,0,5.0,17.0,60,0.00,,,0.00,Weather View 32 v70,2013-03-28 15:10:00,
2013-03-28 11:15:00,40.0,26.8,30.15,NNE,22,10.0,16.0,59,0.00,,,0.00,Weather View 32 v70,2013-03-28 15:15:00,
2013-03-28 11:20:00,40.0,26.8,30.15,ENE,68,12.0,18.0,59,0.00,,,0.00,Weather View 32 v70,2013-03-28 15:20:00,
2013-03-28 11:25:00,41.0,27.8,30.15,West,270,6.0,18.0,59,0.00,,,0.00,Weather View 32 v70,2013-03-28 15:25:00,
2013-03-28 11:30:00,41.0,26.0,30.15,NW,315,5.0,18.0,55,0.00,,,0.00,Weather View 32 v70,2013-03-28 15:30:00,
2013-03-28 11:35:00,41.0,25.6,30.15,NW,315,6.0,18.0,54,0.00,,,0.00,Weather View 32 v70,2013-03-28 15:35:00,
2013-03-28 11:40:00,42.0,27.9,30.15,NNE,22,6.0,18.0,57,0.00,,,0.00,Weather View 32 v70,2013-03-28 15:40:00,
2013-03-28 11:45:00,42.0,27.9,30.15,NE,45,11.0,18.0,57,0.00,,,0.00,Weather View 32 v70,2013-03-28 15:45:00,
2013-03-28 11:50:00,43.0,28.8,30.15,NNE,22,13.0,18.0,57,0.00,,,0.00,Weather View 32 v70,2013-03-28 15:50:00,
2013-03-28 11:55:00,43.0,27.5,30.14,North,0,4.0,18.0,54,0.00,,,0.00,Weather View 32 v70,2013-03-28 15:55:00,
2013-03-28 12:00:00,43.0,27.9,30.14,North,0,5.0,18.0,55,0.00,,,0.00,Weather View 32 v70,2013-03-28 16:00:00,
2013-03-28 12:05:00,42.0,25.6,30.14,WNW,292,5.0,18.0,52,0.00,,,0.00,Weather View 32 v70,2013-03-28 16:05:00,
2013-03-28 12:10:00,43.0,27.5,30.14,North,0,8.0,18.0,54,0.00,,,0.00,Weather View 32 v70,2013-03-28 16:10:00,
2013-03-28 12:15:00,43.0,27.5,30.14,NNE,22,5.0,18.0,54,0.00,,,0.00,Weather View 32 v70,2013-03-28 16:15:00,
2013-03-28 12:20:00,44.0,27.9,30.14,NNW,338,5.0,16.0,53,0.00,,,0.00,Weather View 32 v70,2013-03-28 16:20:00,
2013-03-28 12:25:00,44.0,27.5,30.14,NNW,338,7.0,16.0,52,0.00,,,0.00,Weather View 32 v70,2013-03-28 16:25:00,
2013-03-28 12:30:00,44.0,27.0,30.14,NW,315,4.0,16.0,51,0.00,,,0.00,Weather View 32 v70,2013-03-28 16:30:00,
2013-03-28 12:35:00,45.0,29.3,30.14,NE,45,5.0,16.0,54,0.00,,,0.00,Weather View 32 v70,2013-03-28 16:35:00,
2013-03-28 12:40:00,45.0,28.4,30.13,NNE,22,5.0,16.0,52,0.00,,,0.00,Weather View 32 v70,2013-03-28 16:40:00,
2013-03-28 12:45:00,46.0,28.9,30.13,NE,45,10.0,16.0,51,0.00,,,0.00,Weather View 32 v70,2013-03-28 16:45:00,
2013-03-28 12:50:00,46.0,27.4,30.13,WNW,292,6.0,16.0,48,0.00,,,0.00,Weather View 32 v70,2013-03-28 16:50:00,
2013-03-28 12:55:00,47.0,28.3,30.13,NE,45,4.0,16.0,48,0.00,,,0.00,Weather View 32 v70,2013-03-28 16:55:00,
2013-03-28 13:00:00,47.0,28.8,30.13,NNE,22,10.0,16.0,49,0.00,,,0.00,Weather View 32 v70,2013-03-28 17:00:00,
2013-03-28 13:05:00,48.0,28.2,30.13,NW,315,5.0,16.0,46,0.00,,,0.00,Weather View 32 v70,2013-03-28 17:05:00,
2013-03-28 13:10:00,48.0,28.2,30.13,North,0,3.0,16.0,46,0.00,,,0.00,Weather View 32 v70,2013-03-28 17:10:00,
2013-03-28 13:15:00,48.0,27.6,30.13,WNW,292,5.0,16.0,45,0.00,,,0.00,Weather View 32 v70,2013-03-28 17:15:00,
2013-03-28 13:20:00,48.0,27.1,30.13,West,270,8.0,14.0,44,0.00,,,0.00,Weather View 32 v70,2013-03-28 17:20:00,
2013-03-28 13:25:00,48.0,28.2,30.13,North,0,7.0,14.0,46,0.00,,,0.00,Weather View 32 v70,2013-03-28 17:25:00,
2013-03-28 13:30:00,48.0,27.6,30.13,NNE,22,6.0,14.0,45,0.00,,,0.00,Weather View 32 v70,2013-03-28 17:30:00,
2013-03-28 13:35:00,48.0,26.5,30.13,West,270,2.0,14.0,43,0.00,,,0.00,Weather View 32 v70,2013-03-28 17:35:00,
2013-03-28 13:40:00,48.0,27.6,30.12,NNE,22,11.0,14.0,45,0.00,,,0.00,Weather View 32 v70,2013-03-28 17:40:00,
2013-03-28 13:45:00,48.0,27.1,30.12,NW,315,6.0,14.0,44,0.00,,,0.00,Weather View 32 v70,2013-03-28 17:45:00,
2013-03-28 13:50:00,48.0,27.1,30.12,ENE,68,8.0,14.0,44,0.00,,,0.00,Weather View 32 v70,2013-03-28 17:50:00,
2013-03-28 13:55:00,48.0,26.5,30.12,NNW,338,4.0,14.0,43,0.00,,,0.00,Weather View 32 v70,2013-03-28 17:55:00,
2013-03-28 14:00:00,49.0,28.0,30.12,NE,45,11.0,14.0,44,0.00,,,0.00,Weather View 32 v70,2013-03-28 18:00:00,
2013-03-28 14:05:00,49.0,27.4,30.12,North,0,6.0,16.0,43,0.00,,,0.00,Weather View 32 v70,2013-03-28 18:05:00,
2013-03-28 14:10:00,49.0,27.4,30.12,North,0,6.0,16.0,43,0.00,,,0.00,Weather View 32 v70,2013-03-28 18:10:00,
2013-03-28 14:15:00,49.0,26.9,30.11,NNE,22,10.0,16.0,42,0.00,,,0.00,Weather View 32 v70,2013-03-28 18:15:00,
2013-03-28 14:21:00,49.0,27.4,30.11,ENE,68,8.0,16.0,43,0.00,,,0.00,Weather View 32 v70,2013-03-28 18:21:00,
2013-03-28 14:25:00,50.0,26.0,30.11,WNW,292,5.0,19.0,39,0.00,,,0.00,Weather View 32 v70,2013-03-28 18:25:00,
2013-03-28 14:31:00,50.0,26.0,30.11,NE,45,10.0,19.0,39,0.00,,,0.00,Weather View 32 v70,2013-03-28 18:31:00,
2013-03-28 14:36:00,50.0,24.7,30.11,NNW,338,7.0,19.0,37,0.00,,,0.00,Weather View 32 v70,2013-03-28 18:36:00,
2013-03-28 14:41:00,50.0,24.7,30.11,WNW,292,4.0,19.0,37,0.00,,,0.00,Weather View 32 v70,2013-03-28 18:41:00,
2013-03-28 14:46:00,51.0,26.9,30.11,NNE,22,6.0,19.0,39,0.00,,,0.00,Weather View 32 v70,2013-03-28 18:46:00,
2013-03-28 14:51:00,51.0,26.2,30.10,NW,315,5.0,19.0,38,0.00,,,0.00,Weather View 32 v70,2013-03-28 18:51:00,
2013-03-28 14:56:00,51.0,26.2,30.10,ENE,68,2.0,19.0,38,0.00,,,0.00,Weather View 32 v70,2013-03-28 18:56:00,
2013-03-28 15:01:00,51.0,26.2,30.10,NNE,22,7.0,19.0,38,0.00,,,0.00,Weather View 32 v70,2013-03-28 19:01:00,
2013-03-28 15:06:00,51.0,25.6,30.10,NNW,338,5.0,19.0,37,0.00,,,0.00,Weather View 32 v70,2013-03-28 19:06:00,
2013-03-28 15:11:00,51.0,25.6,30.10,NNE,22,13.0,19.0,37,0.00,,,0.00,Weather View 32 v70,2013-03-28 19:11:00,
2013-03-28 15:16:00,51.0,24.9,30.09,NW,315,6.0,19.0,36,0.00,,,0.00,Weather View 32 v70,2013-03-28 19:16:00,
2013-03-28 15:21:00,51.0,24.9,30.09,WNW,292,7.0,19.0,36,0.00,,,0.00,Weather View 32 v70,2013-03-28 19:21:00,
2013-03-28 15:26:00,51.0,24.9,30.09,NE,45,12.0,19.0,36,0.00,,,0.00,Weather View 32 v70,2013-03-28 19:26:00,
2013-03-28 15:31:00,51.0,24.9,30.08,NNE,22,13.0,19.0,36,0.00,,,0.00,Weather View 32 v70,2013-03-28 19:31:00,
2013-03-28 15:36:00,51.0,24.9,30.08,North,0,7.0,19.0,36,0.00,,,0.00,Weather View 32 v70,2013-03-28 19:36:00,
2013-03-28 15:41:00,51.0,24.3,30.08,North,0,6.0,19.0,35,0.00,,,0.00,Weather View 32 v70,2013-03-28 19:41:00,
2013-03-28 15:46:00,51.0,24.9,30.08,NNW,338,6.0,19.0,36,0.00,,,0.00,Weather View 32 v70,2013-03-28 19:46:00,
2013-03-28 15:51:00,51.0,24.9,30.08,NNE,22,14.0,19.0,36,0.00,,,0.00,Weather View 32 v70,2013-03-28 19:51:00,
2013-03-28 15:56:00,51.0,24.9,30.07,NNE,22,6.0,19.0,36,0.00,,,0.00,Weather View 32 v70,2013-03-28 19:56:00,
2013-03-28 16:02:00,50.0,22.7,30.07,West,270,10.0,19.0,34,0.00,,,0.00,Weather View 32 v70,2013-03-28 20:02:00,
2013-03-28 16:07:00,50.0,23.4,30.07,NNE,22,16.0,19.0,35,0.00,,,0.00,Weather View 32 v70,2013-03-28 20:07:00,
2013-03-28 16:12:00,50.0,24.0,30.07,NE,45,0.0,20.0,36,0.00,,,0.00,Weather View 32 v70,2013-03-28 20:12:00,
2013-03-28 16:17:00,460.0,99.9,30.07,NE,45,0.0,20.0,100,0.19,,,0.19,Weather View 32 v70,2013-03-28 20:17:00,
2013-03-28 16:22:00,50.0,24.0,30.07,NE,45,0.0,20.0,36,0.30,,,0.30,Weather View 32 v70,2013-03-28 20:22:00,
2013-03-28 16:27:00,460.0,99.9,30.08,NE,45,0.0,20.0,100,0.30,,,0.53,Weather View 32 v70,2013-03-28 20:27:00,
2013-03-28 16:32:00,50.0,22.7,30.07,NE,45,0.0,20.0,34,0.84,,,0.84,Weather View 32 v70,2013-03-28 20:32:00,
2013-03-28 16:37:00,50.0,22.0,30.07,North,0,15.0,20.0,33,0.84,,,0.84,Weather View 32 v70,2013-03-28 20:37:00,
2013-03-28 16:42:00,50.0,22.0,30.08,WNW,292,10.0,20.0,33,0.84,,,0.84,Weather View 32 v70,2013-03-28 20:42:00,
2013-03-28 16:47:00,50.0,23.4,30.07,NE,45,10.0,20.0,35,0.84,,,0.84,Weather View 32 v70,2013-03-28 20:47:00,
2013-03-28 16:52:00,50.0,23.4,30.07,NE,45,12.0,23.0,35,0.84,,,0.84,Weather View 32 v70,2013-03-28 20:52:00,
2013-03-28 16:57:00,50.0,24.0,30.07,NNW,338,6.0,23.0,36,0.84,,,0.84,Weather View 32 v70,2013-03-28 20:57:00,
2013-03-28 17:02:00,50.0,24.7,30.07,NW,315,11.0,23.0,37,0.84,,,0.84,Weather View 32 v70,2013-03-28 21:02:00,
2013-03-28 17:07:00,49.0,23.2,30.07,WNW,292,5.0,23.0,36,0.84,,,0.84,Weather View 32 v70,2013-03-28 21:07:00,
2013-03-28 17:12:00,49.0,23.8,30.07,North,0,6.0,23.0,37,0.84,,,0.84,Weather View 32 v70,2013-03-28 21:12:00,
2013-03-28 17:17:00,49.0,23.2,30.07,NW,315,12.0,23.0,36,0.65,,,0.84,Weather View 32 v70,2013-03-28 21:17:00,
2013-03-28 17:22:00,49.0,25.1,30.07,North,0,10.0,23.0,39,0.54,,,0.84,Weather View 32 v70,2013-03-28 21:22:00,
2013-03-28 17:27:00,49.0,24.5,30.07,NNE,22,10.0,23.0,38,0.54,,,0.84,Weather View 32 v70,2013-03-28 21:27:00,
2013-03-28 17:32:00,49.0,23.8,30.08,NNE,22,8.0,23.0,37,0.00,,,0.84,Weather View 32 v70,2013-03-28 21:32:00,
2013-03-28 17:37:00,49.0,23.2,30.07,NNE,22,10.0,23.0,36,0.00,,,0.84,Weather View 32 v70,2013-03-28 21:37:00,
2013-03-28 17:42:00,49.0,23.2,30.08,North,0,10.0,23.0,36,0.00,,,0.84,Weather View 32 v70,2013-03-28 21:42:00,
2013-03-28 17:47:00,49.0,22.5,30.08,WNW,292,8.0,23.0,35,0.00,,,0.84,Weather View 32 v70,2013-03-28 21:47:00,
2013-03-28 17:52:00,49.0,23.2,30.08,North,0,12.0,22.0,36,0.00,,,0.84,Weather View 32 v70,2013-03-28 21:52:00,
2013-03-28 17:57:00,48.0,23.6,30.08,NE,45,9.0,22.0,38,0.00,,,0.84,Weather View 32 v70,2013-03-28 21:57:00,
2013-03-28 18:03:00,48.0,22.9,30.08,NNE,22,11.0,22.0,37,0.00,,,0.84,Weather View 32 v70,2013-03-28 22:03:00,
2013-03-28 18:10:00,48.0,23.6,30.09,NNE,22,6.0,22.0,38,0.00,,,0.84,Weather View 32 v70,2013-03-28 22:10:00,
2013-03-28 18:15:00,48.0,24.2,30.09,NNE,22,10.0,19.0,39,0.00,,,0.84,Weather View 32 v70,2013-03-28 22:15:00,
2013-03-28 18:20:00,48.0,24.2,30.09,NE,45,11.0,19.0,39,0.00,,,0.84,Weather View 32 v70,2013-03-28 22:20:00,
2013-03-28 18:25:00,47.0,23.3,30.09,NNE,22,11.0,19.0,39,0.00,,,0.84,Weather View 32 v70,2013-03-28 22:25:00,
2013-03-28 18:30:00,47.0,23.3,30.09,North,0,12.0,19.0,39,0.00,,,0.84,Weather View 32 v70,2013-03-28 22:30:00,
2013-03-28 18:35:00,47.0,23.9,30.09,NNW,338,10.0,19.0,40,0.00,,,0.84,Weather View 32 v70,2013-03-28 22:35:00,
2013-03-28 18:40:00,47.0,23.9,30.09,NNE,22,8.0,19.0,40,0.00,,,0.84,Weather View 32 v70,2013-03-28 22:40:00,
2013-03-28 18:45:00,47.0,23.9,30.09,NNE,22,8.0,19.0,40,0.00,,,0.84,Weather View 32 v70,2013-03-28 22:45:00,
2013-03-28 18:50:00,46.0,23.0,30.09,NNW,338,11.0,19.0,40,0.00,,,0.84,Weather View 32 v70,2013-03-28 22:50:00,
2013-03-28 18:55:00,46.0,23.6,30.10,North,0,13.0,19.0,41,0.00,,,0.84,Weather View 32 v70,2013-03-28 22:55:00,
2013-03-28 19:00:00,46.0,23.6,30.10,North,0,10.0,20.0,41,0.00,,,0.84,Weather View 32 v70,2013-03-28 23:00:00,
2013-03-28 19:05:00,46.0,23.6,30.10,North,0,15.0,20.0,41,0.00,,,0.84,Weather View 32 v70,2013-03-28 23:05:00,
2013-03-28 19:10:00,45.0,22.7,30.10,NNE,22,11.0,21.0,41,0.00,,,0.84,Weather View 32 v70,2013-03-28 23:10:00,
2013-03-28 19:15:00,45.0,22.7,30.10,NNE,22,11.0,21.0,41,0.00,,,0.84,Weather View 32 v70,2013-03-28 23:15:00,
2013-03-28 19:20:00,45.0,23.8,30.10,NNE,22,10.0,21.0,43,0.00,,,0.84,Weather View 32 v70,2013-03-28 23:20:00,
2013-03-28 19:25:00,45.0,23.3,30.10,NNE,22,10.0,21.0,42,0.00,,,0.84,Weather View 32 v70,2013-03-28 23:25:00,
2013-03-28 19:30:00,45.0,23.3,30.10,NNE,22,8.0,21.0,42,0.00,,,0.84,Weather View 32 v70,2013-03-28 23:30:00,
2013-03-28 19:35:00,44.0,22.9,30.11,NNE,22,10.0,21.0,43,0.00,,,0.84,Weather View 32 v70,2013-03-28 23:35:00,
2013-03-28 19:40:00,44.0,22.9,30.11,NNE,22,10.0,21.0,43,0.00,,,0.84,Weather View 32 v70,2013-03-28 23:40:00,
2013-03-28 19:45:00,44.0,22.9,30.11,North,0,6.0,21.0,43,0.00,,,0.84,Weather View 32 v70,2013-03-28 23:45:00,
2013-03-28 19:50:00,44.0,23.5,30.12,North,0,6.0,21.0,44,0.00,,,0.84,Weather View 32 v70,2013-03-28 23:50:00,
2013-03-28 19:55:00,43.0,22.5,30.12,NNE,22,7.0,21.0,44,0.00,,,0.84,Weather View 32 v70,2013-03-28 23:55:00,
2013-03-28 20:00:00,43.0,23.1,30.12,NNE,22,6.0,21.0,45,0.00,,,0.84,Weather View 32 v70,2013-03-29 00:00:00,
2013-03-28 20:05:00,43.0,23.1,30.12,North,0,7.0,21.0,45,0.00,,,0.84,Weather View 32 v70,2013-03-29 00:05:00,
2013-03-28 20:10:00,43.0,23.1,30.13,NNE,22,8.0,19.0,45,0.00,,,0.84,Weather View 32 v70,2013-03-29 00:10:00,
2013-03-28 20:15:00,43.0,23.1,30.13,North,0,10.0,19.0,45,0.00,,,0.84,Weather View 32 v70,2013-03-29 00:15:00,
2013-03-28 20:20:00,43.0,23.1,30.13,North,0,9.0,19.0,45,0.00,,,0.84,Weather View 32 v70,2013-03-29 00:20:00,
2013-03-28 20:25:00,43.0,23.1,30.13,NNE,22,8.0,18.0,45,0.00,,,0.84,Weather View 32 v70,2013-03-29 00:25:00,
2013-03-28 20:30:00,43.0,22.5,30.13,NNE,22,8.0,17.0,44,0.00,,,0.84,Weather View 32 v70,2013-03-29 00:30:00,
2013-03-28 20:35:00,43.0,22.5,30.13,North,0,8.0,17.0,44,0.00,,,0.84,Weather View 32 v70,2013-03-29 00:35:00,
2013-03-28 20:40:00,43.0,22.5,30.13,North,0,9.0,13.0,44,0.00,,,0.84,Weather View 32 v70,2013-03-29 00:40:00,
2013-03-28 20:45:00,43.0,22.0,30.13,NE,45,8.0,13.0,43,0.00,,,0.84,Weather View 32 v70,2013-03-29 00:45:00,
2013-03-28 20:50:00,42.0,21.6,30.14,NNE,22,10.0,13.0,44,0.00,,,0.84,Weather View 32 v70,2013-03-29 00:50:00,
2013-03-28 20:55:00,42.0,21.6,30.14,NNE,22,6.0,13.0,44,0.00,,,0.84,Weather View 32 v70,2013-03-29 00:55:00,
2013-03-28 21:30:00,42.0,21.6,30.15,NNW,338,4.0,13.0,44,0.00,,,0.84,Weather View 32 v70,2013-03-29 01:30:00,
2013-03-28 21:35:00,42.0,21.6,30.15,NNE,22,4.0,13.0,44,0.00,,,0.84,Weather View 32 v70,2013-03-29 01:35:00,
2013-03-28 21:40:00,42.0,21.6,30.15,NNE,22,3.0,13.0,44,0.00,,,0.84,Weather View 32 v70,2013-03-29 01:40:00,
2013-03-28 21:45:00,41.0,20.7,30.15,North,0,3.0,13.0,44,0.00,,,0.84,Weather View 32 v70,2013-03-29 01:45:00,
2013-03-28 21:50:00,41.0,20.7,30.15,North,0,5.0,13.0,44,0.00,,,0.84,Weather View 32 v70,2013-03-29 01:50:00,
2013-03-28 21:55:00,41.0,20.7,30.16,NE,45,3.0,10.0,44,0.00,,,0.84,Weather View 32 v70,2013-03-29 01:55:00,
2013-03-28 22:00:00,41.0,21.3,30.16,North,0,3.0,7.0,45,0.00,,,0.84,Weather View 32 v70,2013-03-29 02:00:00,
2013-03-28 22:05:00,41.0,21.3,30.16,NW,315,4.0,7.0,45,0.00,,,0.84,Weather View 32 v70,2013-03-29 02:05:00,
2013-03-28 22:10:00,41.0,21.3,30.16,North,0,3.0,7.0,45,0.00,,,0.84,Weather View 32 v70,2013-03-29 02:10:00,
2013-03-28 22:15:00,41.0,21.3,30.16,North,0,3.0,7.0,45,0.00,,,0.84,Weather View 32 v70,2013-03-29 02:15:00,
2013-03-28 22:21:00,41.0,21.3,30.16,North,0,4.0,7.0,45,0.00,,,0.84,Weather View 32 v70,2013-03-29 02:21:00,
2013-03-28 22:26:00,41.0,21.3,30.16,North,0,3.0,7.0,45,0.00,,,0.84,Weather View 32 v70,2013-03-29 02:26:00,
2013-03-28 22:31:00,41.0,21.3,30.16,North,0,3.0,7.0,45,0.00,,,0.84,Weather View 32 v70,2013-03-29 02:31:00,
2013-03-28 22:36:00,41.0,21.3,30.16,NNE,22,2.0,7.0,45,0.00,,,0.84,Weather View 32 v70,2013-03-29 02:36:00,
2013-03-28 22:41:00,41.0,21.8,30.16,NNE,22,3.0,7.0,46,0.00,,,0.84,Weather View 32 v70,2013-03-29 02:41:00,
2013-03-28 22:46:00,41.0,21.8,30.17,ENE,68,3.0,7.0,46,0.00,,,0.84,Weather View 32 v70,2013-03-29 02:46:00,
2013-03-28 22:51:00,41.0,21.8,30.17,East,90,0.0,7.0,46,-0.84,,,0.84,Weather View 32 v70,2013-03-29 02:51:00,
2013-03-28 22:56:00,41.0,21.8,30.17,NW,315,2.0,6.0,46,0.00,,,0.84,Weather View 32 v70,2013-03-29 02:56:00,
2013-03-28 23:01:00,41.0,21.8,30.17,North,0,1.0,5.0,46,0.00,,,0.84,Weather View 32 v70,2013-03-29 03:01:00,
2013-03-28 23:06:00,41.0,21.8,30.17,NW,315,4.0,5.0,46,0.00,,,0.84,Weather View 32 v70,2013-03-29 03:06:00,
2013-03-28 23:11:00,41.0,21.8,30.17,NW,315,4.0,5.0,46,0.00,,,0.84,Weather View 32 v70,2013-03-29 03:11:00,
2013-03-28 23:16:00,41.0,21.8,30.17,NW,315,4.0,5.0,46,0.00,,,0.84,Weather View 32 v70,2013-03-29 03:16:00,
2013-03-28 23:21:00,41.0,21.8,30.16,NW,315,5.0,6.0,46,0.00,,,0.84,Weather View 32 v70,2013-03-29 03:21:00,
2013-03-28 23:26:00,41.0,21.8,30.16,North,0,5.0,6.0,46,0.00,,,0.84,Weather View 32 v70,2013-03-29 03:26:00,
2013-03-28 23:31:00,41.0,21.8,30.16,NNW,338,5.0,8.0,46,0.00,,,0.84,Weather View 32 v70,2013-03-29 03:31:00,
2013-03-28 23:36:00,41.0,21.8,30.16,NNW,338,5.0,8.0,46,0.00,,,0.84,Weather View 32 v70,2013-03-29 03:36:00,
2013-03-28 23:41:00,41.0,21.8,30.16,North,0,6.0,8.0,46,0.00,,,0.84,Weather View 32 v70,2013-03-29 03:41:00,
2013-03-28 23:46:00,41.0,22.3,30.16,NNW,338,5.0,8.0,47,0.00,,,0.84,Weather View 32 v70,2013-03-29 03:46:00,
2013-03-28 23:52:00,41.0,22.3,30.16,NW,315,6.0,8.0,47,0.00,,,0.84,Weather View 32 v70,2013-03-29 03:52:00,
2013-03-28 23:57:00,41.0,22.3,30.16,NNW,338,6.0,8.0,47,0.00,,,0.84,Weather View 32 v70,2013-03-29 03:57:00,